Regional Weather Roundup
Issued by NWS

Home | Current Version | Previous Version | Text Only | Print | Product List | Glossary On
Versions: 1 2 3 4 5 6 7 8 9 10 11 12 13 14 15 16 17 18 19 20 21 22 23 24 25 26 27 28 29 30 31 32 33 34 35 36 37 38 39 40 41 42 43 44 45 46 47 48 49 50
000
ASUS44 KMEG 290010
RWRTN
TENNESSEE HOURLY STATE WEATHER ROUNDUP
NATIONAL WEATHER SERVICE MEMPHIS TN
600 PM CST FRI NOV 28 2014

TNZ002-004-019-021-049-052-054-088>092-290100-
WEST TENNESSEE

CITY           SKY/WX    TMP DP  RH WIND       PRES   REMARKS
MEMPHIS INTL   CLEAR     47  24  40 S7        30.15F
NWS MEMPHIS      N/A     49 N/A N/A MISG        N/A
JACKSON        CLEAR     47  26  44 S7        30.15F
DYERSBURG      CLEAR     46  21  36 S5        30.14R
UNION CITY     CLEAR     41  27  56 S12       30.10F
PARIS          CLEAR     41  25  52 S9        30.13F
HUNTINGDON     CLEAR     41  23  48 S8        30.14F
LEXINGTON      CLEAR     45  23  42 S6        30.16F
SAVANNAH       CLEAR     43  27  52 S7        30.20F
$$

TNZ008-025-027-028-033-062-065-066-290100-
NORTH MIDDLE TENNESSEE

CITY           SKY/WX    TMP DP  RH WIND       PRES   REMARKS
NASHVILLE      PTCLDY    41  22  46 S8        30.20F
CLARKSVILLE    PTCLDY    43  25  49 S9        30.14F
COOKEVILLE     CLEAR     39  21  48 S7        30.21S WCI  34
CROSSVILLE     CLEAR     36  18  48 S6        30.21F WCI  31
$$

TNZ061-075-076-078-094-096-097-290100-
SOUTH MIDDLE TENNESSEE

CITY           SKY/WX    TMP DP  RH WIND       PRES   REMARKS
FAYETTEVILLE   CLEAR     39  16  38 MISG      30.24R
TULLAHOMA      CLEAR     39  18  41 S5        30.23S
WINCHESTER     CLEAR     37  18  44 SE5       30.25S WCI  34
MCMINNVILLE    CLEAR     37  21  52 CALM      30.22S
COLUMBIA       CLEAR     41  25  52 S5        30.18F
SHELBYVILLE    CLEAR     41  21  45 S6        30.24S
$$

TNZ017-018-042-046-047-290100-
NORTHEAST TENNESSEE

CITY           SKY/WX    TMP DP  RH WIND       PRES   REMARKS
TRI CITIES     PTCLDY    29  22  75 CALM      30.26F
ELIZABETHTON   CLEAR     27  23  86 E6        30.25F WCI  20
$$

TNZ012-013-036-069-073-074-290100-
CENTRAL EAST TENNESSEE

CITY           SKY/WX    TMP DP  RH WIND       PRES   REMARKS
KNOXVILLE      CLEAR     37  20  50 CALM      30.26F
OAK RIDGE      CLEAR     35  20  54 CALM      30.28F
GATLINBURG     CLEAR     32  21  64 CALM      30.27S
MORRISTOWN     CLEAR     34  21  60 CALM      30.26F
$$

TNZ083-085-099-290100-
SOUTHEAST TENNESSEE

CITY           SKY/WX    TMP DP  RH WIND       PRES   REMARKS
CHATTANOOGA    PTCLDY    38  24  57 CALM      30.29R
$$

SKY/WX REPORTED AS FAIR MEANS FEW OR NO CLOUDS BELOW
12 THOUSAND FEET.




USA.gov is the U.S. government's official web portal to all federal, state and local government web resources and services.